Location: Malvern Link
(52.1333°N, 2.3000°W)
Time: 10:09:10
(UTC+00:00)

MOZHAYETS 4 - Pass Details

Date: 08 July 2022
Orbit: 660 x 679 km, 98.2° (Epoch: 09 August)

Event Time Altitude Azimuth Distance (km) Brightness Sun altitude
Exits shadow 01:34:06 - 141° (SE) 2,886 10.7 -13.4°
Reaches altitude 10° 01:36:05 10° 135° (SE) 2,103 10.0 -13.3°
Maximum altitude 01:40:23 41° 66° (ENE) 983 9.0 -13.0°
Drops below altitude 10° 01:44:41 10° 357° (N) 2,106 11.4 -12.8°
Sets 01:47:00 0° 351° (N) 3,021 12.2 -12.7°
